Location: Le Sartre
(44.8050°N, 2.2123°E)
Time: 20:22:25
(UTC+00:00)

Cosmos 1833 - Pass Details

Date: 15 May 2026
Orbit: 833 x 865 km, 70.9° (Epoch: 8 June)

Event Time Altitude Azimuth Distance (km) Brightness Sun altitude
Exits shadow 21:44:10 26° 197° (SSW) 1,617 5.3 -20.2°
Maximum altitude 21:47:31 79° 113° (ESE) 859 4.1 -20.5°
Drops below altitude 10° 21:53:09 10° 28° (NNE) 2,457 7.0 -21.0°
Sets 21:55:35 0° 27° (NNE) 3,392 7.8 -21.2°
